EW7835 Weather Reports


time (UTC)temp
F
wind
direction
speed
knots
gust
knots
rain 1hr
in
rain 24hr
in
rain mn
in
humidity
%
barometer
mb
20260507124540 44 0.0 0.0 0.00 0.00 0.00 58 1007.0
20260507123035 43 0.0 0.0 0.00 0.00 0.00 58 1007.0
20260507121528 42 0.0 0.0 0.00 0.00 0.00 57 1006.9
20260507120032 42 0.0 0.0 0.00 0.00 0.00 53 1006.8
20260507114519 41 0.0 0.0 0.00 0.00 0.00 47 1006.8
20260507113013 40 0.0 0.0 0.00 0.00 0.00 43 1006.7
20260507111509 40 0.0 0.0 0.00 0.00 0.00 35 1006.6
20260507110001 39 0.0 0.0 0.00 0.00 0.00 26 1006.4
20260507104557 39 0.0 0.0 0.00 0.00 0.00 13 1006.4
20260507103052 38 0.0 0.0 0.00 0.00 0.00 1 1006.2
20260507101557 38 0.0 0.0 0.00 0.00 0.00 1 1006.0
20260507100016 39 0.0 0.0 0.00 0.00 0.00 1 1006.1
20260507094509 39 0.0 0.0 0.00 0.00 0.00 1 1006.2
20260507093035 40 0.0 0.0 0.00 0.00 0.00 1 1006.1
20260507091531 40 0.0 0.0 0.00 0.00 0.00 1 1006.0
20260507090056 41 0.0 0.0 0.00 0.00 0.00 1 1006.0
20260507084557 41 0.0 0.0 0.00 0.00 0.00 1 1006.0
20260507083018 42 0.0 0.0 0.00 0.00 0.00 1 1005.9
20260507081517 42 0.0 0.0 0.00 0.00 0.00 1 1005.9
20260507080039 42 0.0 0.0 0.00 0.00 0.00 1 1005.9
20260507074536 42 0.0 0.0 0.00 0.00 0.00 1 1006.0
20260507073031 42 0.0 0.0 0.00 0.00 0.00 1 1005.8
20260507071525 43 0.0 0.0 0.00 0.00 0.00 1 1005.8
20260507070024 43 0.0 0.0 0.00 0.00 0.00 1 1005.7
20260507064524 43 0.0 0.0 0.00 0.00 0.00 1 1005.4
20260507063047 43 0.0 0.0 0.00 0.00 0.00 1 1005.1
20260507061537 44 0.0 0.0 0.00 0.00 0.00 1 1005.1
20260507060029 44 0.0 0.0 0.00 0.00 0.00 1 1005.2
20260507054531 44 0.0 0.0 0.00 0.00 0.00 1 1005.2
20260507053020 44 0.0 0.0 0.00 0.00 0.00 1 1005.3
20260507051517 44 0.0 0.0 0.00 0.00 0.00 1 1005.1
20260507050114 44 0.0 0.0 0.00 0.00 0.00 1 1005.3
20260507044541 44 0.0 0.0 0.00 0.00 0.00 1 1005.4
20260507043034 44 0.0 0.0 0.00 0.00 0.00 1 1005.2
20260507041534 45 0.0 0.0 0.00 0.00 0.00 1 1005.9
20260507040023 45 0.0 0.0 0.00 0.00 0.00 1 1005.5
20260507034519 45 0.0 0.0 0.00 0.00 0.00 1 1005.3
20260507033014 45 0.0 0.0 0.00 0.00 0.00 1 1005.5
20260507031507 45 0.0 0.0 0.00 0.00 0.00 1 1005.2
20260507030003 45 0.0 0.0 0.00 0.00 0.00 1 1005.4
20260507024625 46 0.0 0.0 0.00 0.00 0.00 1 1005.5
20260507023054 46 0.0 0.0 0.00 0.00 0.00 1 1005.6
20260507021549 46 0.0 0.0 0.00 0.00 0.00 1 1005.6
20260507020103 46 0.0 0.0 0.00 0.00 0.00 1 1005.7
20260507014544 46 0.0 0.0 0.00 0.00 0.00 1 1005.8
20260507013033 47 0.0 0.0 0.00 0.00 0.00 1 1005.5
20260507011529 47 0.0 0.0 0.00 0.00 0.00 1 1005.2
20260507010025 47 0.0 0.0 0.00 0.00 0.00 1 1004.9
20260507004531 47 0.0 0.0 0.00 0.00 0.00 1 1004.9
20260507003013 47 0.0 0.0 0.00 0.00 0.00 1 1004.8
20260507001508 48 0.0 0.0 0.00 0.00 0.00 1 1004.6
20260507000003 48 0.0 0.0 0.00 0.00 0.00 1 1004.1
20260506234602 48 0.0 0.0 0.00 0.00 0.00 1 1003.9
20260506233057 48 0.0 0.0 0.00 0.00 0.00 1 1003.6
20260506231556 48 0.0 0.0 0.00 0.00 0.00 1 1003.2
20260506230054 48 0.0 0.0 0.00 0.00 0.00 1 1003.0
20260506224539 48 0.0 0.0 0.00 0.00 0.00 1 1002.9
20260506223045 48 0.0 0.0 0.00 0.00 0.00 1 1002.8
20260506221528 48 0.0 0.0 0.00 0.00 0.00 1 1002.5
20260506220026 49 0.0 0.0 0.00 0.00 0.00 1 1002.3
20260506214517 49 0.0 0.0 0.00 0.00 0.00 1 1002.0
20260506213013 49 0.0 0.0 0.00 0.00 0.00 1 1002.1
20260506211513 50 0.0 0.0 0.00 0.00 0.00 1 1001.8
20260506210007 51 0.0 0.0 0.00 0.00 0.00 1 1001.6
20260506204532 54 0.0 0.0 0.00 0.00 0.00 1 1001.3
20260506203032 54 0.0 0.0 0.00 0.00 0.00 1 1001.2
20260506201534 54 0.0 0.0 0.00 0.00 0.00 1 1001.0
20260506200026 55 0.0 0.0 0.00 0.00 0.00 1 1000.9
20260506194528 55 0.0 0.0 0.00 0.00 0.00 1 1000.9
20260506193022 56 0.0 0.0 0.00 0.00 0.00 1 1000.9
20260506191550 56 0.0 0.0 0.00 0.00 0.00 1 1000.7
20260506190043 57 0.0 0.0 0.00 0.00 0.00 1 1000.7
20260506184509 57 0.0 0.0 0.00 0.00 0.00 1 1000.7
20260506183005 57 0.0 0.0 0.00 0.00 0.00 1 1000.7
20260506181557 57 0.0 0.0 0.00 0.00 0.00 1 1000.7
20260506180054 56 0.0 0.0 0.00 0.00 0.00 1 1001.1
20260506174549 56 0.0 0.0 0.00 0.00 0.00 1 1001.1
20260506173050 56 0.0 0.0 0.00 0.00 0.00 1 1001.0
20260506171539 56 0.0 0.0 0.00 0.00 0.00 1 1001.1
20260506170036 56 0.0 0.0 0.00 0.00 0.00 1 1001.2
20260506164528 56 0.0 0.0 0.00 0.00 0.00 1 1001.3
20260506163023 56 0.0 0.0 0.00 0.00 0.00 1 1001.4
20260506161518 56 0.0 0.0 0.00 0.00 0.00 1 1001.4
20260506160045 55 0.0 0.0 0.00 0.00 0.00 1 1001.5
20260506154542 55 0.0 0.0 0.00 0.00 0.00 1 1001.5
20260506153010 55 0.0 0.0 0.00 0.00 0.00 1 1001.7
20260506151502 54 0.0 0.0 0.00 0.00 0.00 1 1001.9
20260506150055 54 0.0 0.0 0.00 0.00 0.00 1 1002.2
20260506144602 54 0.0 0.0 0.00 0.00 0.00 1 1002.4
20260506143046 54 0.0 0.0 0.00 0.00 0.00 1 1002.6
20260506141541 54 0.0 0.0 0.00 0.00 0.00 1 1002.7
20260506140036 54 0.0 0.0 0.00 0.00 0.00 1 1002.8
20260506134533 54 0.0 0.0 0.00 0.00 0.00 1 1002.8
20260506133028 54 0.0 0.0 0.00 0.00 0.00 1 1002.6
20260506131522 53 0.0 0.0 0.00 0.00 0.00 1 1002.5
20260506130057 52 0.0 0.0 0.00 0.00 0.00 1 1002.9